Flag for Australia Weather past 2 weeks in Canberra, Australian Capital Territory, Australia

Now
59 °F

Sunny.


Feels Like: 58 °F
Forecast: 43 / 53 °F
Wind: 6 mph from Northwest

Location: Canberra Airport

Current Time: Sep 2, 2015 at 1:25:59 PM

Latest Report: Sep 2, 2015 at 1:00 PM


Visibility: 10 mi

Pressure: 29.89 "Hg (27.91 "Hg at 577m altitude)

Humidity: 48%

Dew point: 39 °F

Location of CanberraLocation

Historic Weather in Canberra — Graph

°F

Canberra temperature yesterday

Maximum temperature yesterday: 55 °F (at 1:00 PM)
Minimum temperature yesterday: 27 °F (at 4:51 AM)
Average temperature yesterday: 41 °F

Past Weeks' High & Low Weather Summary

 TemperatureHumidityPressure
High68 °F (Aug 22, 1:02 PM)100% (Aug 19, 1:00 AM)30.36 "Hg (Aug 19, 1:00 AM)
Low25 °F (Aug 19, 4:00 AM)33% (Aug 29, 1:00 PM)29.92 "Hg (Sep 1, 1:30 PM)
Average46 °F78%30.12 "Hg
* Reported Aug 18 12:00 Noon — Sep 2 12:00 Noon, Canberra, Weather by CustomWeather, © 2015

Note: Actual official high and low records may vary slightly from our data, if they occured in-between our weather recording intervals... More about our weather records

Advertising

Canberra weather history for previous 24 hours

 ConditionsComfort  
Time TempWeatherWind HumidityBarometerVisibility
12:00 PM
Wed, Sep 2
55 °FSunny.6 mph55%29.95 "Hg10 mi
11:30 AM52 °FSunny.3 mph67%29.98 "Hg10 mi
11:00 AM50 °FSunny.5 mph67%30.01 "Hg10 mi
10:30 AM46 °FScattered clouds.5 mph76%30.01 "HgN/A
10:00 AM45 °FScattered clouds.3 mph76%30.01 "HgN/A
9:30 AM43 °FPartly sunny.3 mph87%30.04 "HgN/A
9:00 AM41 °FPartly sunny.2 mph87%30.04 "HgN/A
8:30 AM39 °FFog.1 mph93%30.04 "HgN/A
7:30 AM32 °FScattered clouds.2 mph100%30.04 "HgN/A
7:00 AM28 °FScattered clouds.No wind100%30.04 "HgN/A
6:30 AM28 °FFog.2 mph100%30.04 "Hg3 mi
6:04 AM28 °FIce fog.6 mph100%30.04 "Hg1 mi
5:30 AM27 °FScattered clouds.No wind100%30.01 "HgN/A
5:00 AM30 °FLight fog.1 mph100%30.01 "HgN/A
4:30 AM28 °FLight fog.6 mph93%30.01 "HgN/A
4:01 AM28 °FPassing clouds.No wind93%30.01 "Hg1 mi
3:00 AM28 °FClear.5 mph100%30.01 "HgN/A
2:00 AM32 °FClear.No wind93%30.04 "Hg6 mi
1:00 AM32 °FClear.6 mph93%30.04 "HgN/A
12:30 AM32 °FClear.3 mph93%30.04 "HgN/A
12:00 AM34 °FClear.6 mph100%30.01 "HgN/A
11:00 PM
Tue, Sep 1
36 °FClear.3 mph93%30.01 "HgN/A
10:00 PM37 °FClear.6 mph87%30.01 "HgN/A
9:30 PM39 °FClear.6 mph81%30.01 "HgN/A
9:00 PM41 °FClear.6 mph81%29.98 "HgN/A
8:30 PM43 °FClear.7 mph81%29.98 "Hg10 mi
8:00 PM43 °FClear.9 mph81%29.98 "Hg10 mi
7:30 PM45 °FClear.12 mph71%29.95 "Hg10 mi
7:00 PM45 °FPassing clouds.10 mph71%29.95 "HgN/A
6:00 PM48 °FPassing clouds.8 mph66%29.95 "HgN/A
5:30 PM50 °FClear.13 mph62%29.92 "Hg10 mi
5:00 PM52 °FPassing clouds.10 mph62%29.92 "HgN/A
4:30 PM54 °FPassing clouds.16 mph58%29.92 "HgN/A
4:00 PM55 °FPassing clouds.16 mph59%29.92 "HgN/A
3:30 PM55 °FPassing clouds.18 mph55%29.92 "HgN/A
3:00 PM55 °FPassing clouds.17 mph55%29.92 "HgN/A
1:30 PM55 °FPassing clouds.10 mph59%29.92 "HgN/A
1:00 PM55 °FPassing clouds.12 mph59%29.95 "HgN/A
Weather by CustomWeather, © 2015

See weather overviewHow to use our weather pages